DELTA 1 DEB, 10746

Orbit data source: Space-Track

DELTA 1 DEB, 10746 is space debris in SSO originally from a launch on Thu, 29 Jul 1976 UTC launched from the Air Force Western Test Range (AFWTR). Debris objects in space refer to the collection of defunct objects orbiting the Earth. Examples of debris include non-operational satellites, rocket bodies, and fragments generated from explosions, collisions, or faulty payload assembly.

Loading next visibility...
Identifier
10746, 1976-077AT
Orbit
SSO
Country
Flag of USUS
Related business
Manufacturer
Unknown
Mission
Spacecraft
Bus & Motor
Unknown
Mass
Unknown
Launch date (UTC)
1976-07-29 (50 years ago)
Launch vehicle
Unknown
Launch site
Air Force Western Test Range (AFWTR)
Object type
Payload
Rocket body
Debris
Shape & HBR
Unknown shape, 1.1 m
Radar Cross Section
Small (<0.1 m²)

Expand to show TLE details & history
Last TLE update: 11 hours ago

TLE from 11 hours ago
0 DELTA 1 DEB
1 10746U 76077AT  26034.06710794  .00001988  00000-0  40220-2 0  9990
2 10746 101.9095 240.1678 0277537 240.5762 273.6803 13.22074348335396
Epoch: 2026-02-03T01:36Z
TLE epoch observation values (Epoch: 2026-02-03T01:36:38.126Z)
Latitude
28.28759°
Longitude
-90.76042°
Altitude
1,172.418 km
Speed
7.273 km/s
True Right ascension
04h 26m 36s
True Declination
28° 09' 08"
Sunlit
Object was in daylight at epoch
Visualization orbit readout
Latitude
Unknown
Longitude
Unknown
Altitude
Unknown
Speed
Unknown
Apparent Right ascension
Unknown
Apparent Declination
Unknown
Sunlit
N/A
Visualization observer readout
Local Sidereal Time
14:58:31
Azimuth
Unknown
Elevation
Unknown
Doppler factor
Unknown
Orbital elements
Apogee altitude
1,383.874 km
Perigee altitude
964.66 km
Semi-major axis
7,552.404 km
Eccentricity
0.02775
Inclination
101.9095°
RAAN
240.1678°
Arg. of periapsis
240.5762°
True anomaly
270.50107°
Mean anomaly
273.6803°
Eccentric anomaly
272.09119°
Mean motion
3.30686 °/min
Orbital period
108.86 mins
BSTAR
0.004022
Loading maneuver chart data...
Computing Atmospheric mass density...
Loading historical data...
Loading historical data...
Loading historical data...
Loading historical data...
Loading historical data...
Loading historical data...
Loading historical data...

Documentation

Showing up to 5 results
|